This is the latest recevied weather packets stored in our database for station/object 9M2RSI-1. If no packets are shown the sender has not sent any weather packets the latest 10 day(s).
| Time | Temp. | Humidity | Pressure | Rain* | Wind** | Luminosity | Snow |
|---|---|---|---|---|---|---|---|
| 1777983301 | 32.78° C | 64% | 1008.2 hPa | - | - | - | - |
| 1777982401 | 32.78° C | 62% | 1008.2 hPa | - | - | - | - |
| 1777981501 | 33.33° C | 62% | 1008.1 hPa | - | - | - | - |
| 1777980601 | 33.33° C | 60% | 1007.6 hPa | - | - | - | - |
| 1777979700 | 34.44° C | 56% | 1007.4 hPa | - | - | - | - |
| 1777978801 | 34.44° C | 55% | 1007.1 hPa | - | - | - | - |
| 1777977900 | 34.44° C | 55% | 1006.8 hPa | - | - | - | - |
| 1777977000 | 35° C | 55% | 1006.3 hPa | - | - | - | - |
| 1777976100 | 35° C | 55% | 1006.2 hPa | - | - | - | - |
| 1777975200 | 35° C | 55% | 1005.9 hPa | - | - | - | - |
| 1777974300 | 35° C | 54% | 1005.8 hPa | - | - | - | - |
| 1777973400 | 35° C | 54% | 1005.9 hPa | - | - | - | - |
| 1777972500 | 35° C | 53% | 1006.1 hPa | - | - | - | - |
| 1777971600 | 35° C | 53% | 1006.1 hPa | - | - | - | - |
| 1777970699 | 35° C | 52% | 1006.3 hPa | - | - | - | - |
| 1777954498 | 31.67° C | 63% | 1010.3 hPa | - | - | - | - |
| 1777953598 | 31.67° C | 64% | 1010.5 hPa | - | - | - | - |
| 1777952698 | 31.11° C | 65% | 1010.6 hPa | - | - | - | - |
| 1777951798 | 31.11° C | 65% | 1010.7 hPa | - | - | - | - |
| 1777950898 | 30.56° C | 68% | 1011 hPa | - | - | - | - |
| 1777949997 | 30° C | 69% | 1011.2 hPa | - | - | - | - |
| 1777949097 | 30° C | 70% | 1011.1 hPa | - | - | - | - |
| 1777948197 | 29.44° C | 72% | 1011.2 hPa | - | - | - | - |
| 1777947297 | 29.44° C | 75% | 1011.3 hPa | - | - | - | - |
| 1777946397 | 28.89° C | 76% | 1011.3 hPa | - | - | - | - |
* Rain since midnight (hover to see other rain measurements)
** Current wind speed in m/s (hover to see current wind gust speed)